SCP
0 0 0 0 0 0 0 0 0 0 0 0 0 0 0 0 0 0 0 0 0 0 0 0 0 0 0 0 0 0 0 0 0 0 0 0 0 0 0 0 0 0 0 0
0 0 0 0 0 0 0 0 0 0 0 0 0 0 0 0 0 0 0 0 0 0 0 0 0 0 0 0 0 0 0 0 0 0 0 0 0 0 0 0 0 0 0 0
0 0 0 0 0 0 0 0 0 0 0 0 0 0 0 0 0 0 0 0 0 0 0 0 0 0 0 0 0 0 0 0 0 0 0 0 0 0 0 0 0 0 0 0
0 0 0 0 0 0 0 0 0 0 0 0 0 0 0 0 0 0 0 0 0 0 0 0 0 0 0 0 0 0 0 0 0 0 0 0 0 0 0 0 0 0 0 0
0 0 0 0 0 0 0 0 0 0 0 0 0 0 0 0 0 0 0 0 0 0 0 0 0 0 0 0 0 0 0 0 0 0 0 0 0 0 0 0 0 0 0 0
0 0 0 0 0 0 0 0 0 0 0 0 0 0 0 0 0 0 0 0 0 0 0 0 0 0 0 0 0 0 0 0 0 0 0 0 0 0 0 0 0 0 0 0
0 0 0 0 0 0 0 0 0 0 0 0 0 0 0 0 0 0 0 0 0 0 0 0 0 0 0 0 0 0 0 0 0 0 0 0 0 0 0 0 0 0 0 0
0 0 0 0 0 0 0 0 0 0 0 0 0 0 0 0 0 0 0 0 0 0 0 0 0 0 0 0 0 0 0 0 0 0 0 0 0 0 0 0 0 0 0 0
0 0 0 0 0 0 0 0 0 0 0 0 0 0 0 0 0 0 0 0 0 0 0 0 0 0 0 0 0 0 0 0 0 0 0 0 0 0 0 0 0 0 0 0
0 0 0 0 0 0 0 0 0 0 0 0 0 0 0 0 0 0 0 0 0 0 0 0 0 0 0 0 0 0 0 0 0 0 0 0 0 0 0 0 0 0 0 0
0 0 0 0 0 0 0 0 0 0 0 0 0 0 0 0 0 0 0 0 0 0 0 0 0 0 0 0 0 0 0 0 0 0 0 0 0 0 0 0 0 0 0 0
0 0 0 0 0 0 0 0 0 0 0 0 0 0 0 0 0 0 0 0 0 0 0 0 0 0 0 0 0 0 0 0 0 0 0 0 0 0 0 0 0 0 0 0
0 0 0 0 0 0 0 0 0 0 0 0 0 0 0 0 0 0 0 0 0 0 0 0 0 0 0 0 0 0 0 0 0 0 0 0 0 0 0 0 0 0 0 0
0 0 0 0 0 0 0 0 0 0 0 0 0 0 0 0 0 0 0 0 0 0 0 0 0 0 0 0 0 0 0 0 0 0 0 0 0 0 0 0 0 0 0 0
0 0 0 0 0 0 0 0 0 0 0 0 0 0 0 0 0 0 0 0 0 0 0 0 0 0 0 0 0 0 0 0 0 0 0 0 0 0 0 0 0 0 0 0
0 0 0 0 0 0 0 0 0 0 0 0 0 0 0 0 0 0 0 0 0 0 0 0 0 0 0 0 0 0 0 0 0 0 0 0 0 0 0 0 0 0 0 0
0 0 0 0 0 0 0 0 0 0 0 0 0 0 0 0 0 0 0 0 0 0 0 0 0 0 0 0 0 0 0 0 0 0 0 0 0 0 0 0 0 0 0 0
0 0 0 0 0 0 0 0 0 0 0 0 0 0 0 0 0 0 0 0 0 0 0 0 0 0 0 0 0 0 0 0 0 0 0 0 0 0 0 0 0 0 0 0
0 0 0 0 0 0 0 0 0 0 0 0 0 0 0 0 0 0 0 0 0 0 0 0 0 0 0 0 0 0 0 0 0 0 0 0 0 0 0 0 0 0 0 0
0 0 0 0 0 0 0 0 0 0 0 0 0 0 0 0 0 0 0 0 0 0 0 0 0 0 0 0 0 0 0 0 0 0 0 0 0 0 0 0 0 0 0 0
0 0 0 0 0 0 0 0 0 0 0 0 0 0 0 0 0 0 0 0 0 0 0 0 0 0 0 0 0 0 0 0 0 0 0 0 0 0 0 0 0 0 0 0
0 0 0 0 0 0 0 0 0 0 0 0 0 0 0 0 0 0 0 0 0 0 0 0 0 0 0 0 0 0 0 0 0 0 0 0 0 0 0 0 0 0 0 0
0 0 0 0 0 0 0 0 0 0 0 0 0 0 0 0 0 0 0 0 -0 0 0 0 0 0 0 0 0 0 0 0 0 0 0 0 0 0 0 0 0 0 0 0
0 0 0 0 0 0 0 0 0 0 0 0 0 0 0 0 0 0 0 0 0 0 0 0 0 0 0 0 0 0 0 0 0 0 0 0 0 0 0 0 0 0 0 0
0 0 0 0 0 0 0 0 0 0 0 0 0 0 0 0 0 0 0 0 0 0 0 0 0 0 0 0 0 0 0 0 0 0 0 0 0 0 0 0 0 0 0 0
0 0 0 0 0 0 0 0 0 0 0 0 0 0 0 0 0 0 0 0 0 0 0 0 0 0 0 0 0 0 0 0 0 0 0 0 0 0 0 0 0 0 0 0
Wind_Speed
4 4 4 2 2 1 5 6 5 2 1 0 3 3 3 4 4 3 3 2 1 1 2 2 2 2 3 3 3 3 3 3 2 1 0 0 0 0 1 1 2 2 2 2
5 5 3 2 2 5 7 7 4 3 1 0 2 4 4 4 5 4 4 3 2 2 1 2 2 2 2 3 3 3 3 2 2 2 1 0 0 0 1 1 1 2 3 3
7 3 2 3 5 6 5 4 4 3 1 1 2 4 5 4 4 4 4 4 3 2 2 2 2 3 3 3 3 3 3 2 2 2 1 1 0 0 0 1 1 2 2 3
7 3 2 4 4 2 3 2 3 3 3 1 2 3 4 5 5 5 5 4 4 3 3 2 2 3 3 3 3 2 3 2 2 1 1 1 1 1 1 1 1 2 2 2
4 3 3 4 3 2 4 2 3 2 2 1 0 4 3 3 5 6 6 5 4 3 3 3 3 3 3 3 3 2 2 2 2 1 0 0 1 1 2 2 2 2 2 2
4 2 3 2 2 2 4 3 3 2 1 2 2 4 3 4 5 4 4 4 4 3 3 3 3 3 3 3 2 2 2 2 2 1 0 1 1 1 1 2 2 2 2 2
3 3 3 2 2 2 1 2 1 1 1 2 1 4 6 2 3 4 4 4 3 3 3 3 3 2 3 3 2 2 1 2 2 1 1 1 1 1 1 2 2 2 2 2
3 1 2 3 1 1 1 1 1 1 2 1 3 6 3 0 1 3 3 3 3 2 2 3 3 3 3 3 2 2 2 2 1 1 1 1 1 1 1 2 2 2 1 2
4 2 1 2 2 0 2 1 2 2 1 2 3 4 5 2 3 4 4 4 4 3 2 3 2 3 3 3 2 2 2 2 1 2 1 1 1 1 1 1 2 1 2 2
3 4 1 1 1 2 2 2 2 2 2 3 3 4 3 4 6 5 5 5 4 3 2 2 2 3 3 2 2 2 1 1 1 1 1 1 1 1 1 1 1 2 2 2
1 4 1 1 2 2 2 2 2 2 1 2 3 3 2 4 5 6 6 5 5 4 3 3 3 2 2 2 2 1 1 1 1 0 0 1 1 1 1 1 2 2 2 2
2 3 2 2 1 2 2 2 4 2 2 2 3 5 1 3 3 4 5 4 4 4 3 3 3 2 2 2 1 1 1 1 1 1 0 0 1 1 1 1 2 2 2 2
4 4 3 1 3 2 3 3 3 1 2 3 4 5 2 1 3 4 5 5 4 4 4 3 3 2 2 2 2 1 1 1 1 1 1 1 1 1 1 1 2 2 2 2
3 3 4 4 1 4 5 6 7 6 5 5 9 9 5 5 6 5 5 5 5 5 4 4 3 3 3 2 2 2 2 2 1 1 1 1 1 1 2 2 2 2 2 2
2 3 2 2 1 2 5 7 11 12 10 9 9 10 13 9 8 6 6 5 6 6 6 5 5 4 3 3 3 3 2 2 2 2 2 2 2 2 2 2 2 2 2 2
2 3 2 1 0 2 6 10 13 13 12 13 12 15 13 8 6 7 8 7 8 8 7 6 6 5 5 4 4 3 3 3 3 3 3 2 2 2 2 2 2 2 2 2
5 5 4 3 1 2 10 13 16 12 13 12 15 14 7 6 8 9 8 9 9 9 8 7 7 6 5 5 4 4 4 3 3 3 3 2 2 2 2 2 2 2 2 2
6 5 3 1 1 9 6 2 11 12 13 16 14 12 9 8 5 6 8 9 10 9 8 7 6 6 5 4 4 4 3 3 3 3 3 3 3 3 2 2 3 3 2 2
3 5 4 3 5 10 8 6 9 11 11 14 18 16 11 3 4 8 9 11 11 9 7 6 5 5 4 4 4 4 4 3 4 4 4 3 3 3 3 3 3 3 2 3
2 2 4 5 6 9 5 4 5 4 9 8 13 14 9 7 5 5 4 6 7 6 4 4 3 3 4 4 4 4 4 4 5 5 4 4 4 4 4 4 3 3 2 3
6 5 6 7 8 12 5 7 9 7 7 4 9 10 11 11 7 1 3 4 4 4 4 4 4 4 4 4 4 5 5 6 5 4 3 3 4 4 4 3 3 3 2 3
13 11 11 8 9 14 9 13 14 8 1 4 6 8 10 9 5 4 4 4 4 3 3 4 4 4 3 3 5 5 6 5 3 3 3 4 4 3 3 3 3 2 3 3
13 12 10 14 12 2 13 11 7 2 4 4 5 6 8 7 7 6 6 6 5 5 4 4 4 3 3 3 4 6 5 3 3 3 3 3 3 3 3 3 3 3 3 3
8 5 6 9 13 8 10 11 7 6 7 5 5 5 7 7 7 7 6 6 6 5 5 4 4 4 4 3 4 4 3 2 3 4 4 3 3 4 3 3 3 4 4 4
10 11 8 11 8 5 9 14 14 12 9 8 7 7 8 8 8 8 7 7 6 5 4 4 5 5 5 4 4 3 3 3 4 4 4 4 4 4 4 4 4 5 5 5
12 14 14 13 10 10 8 9 11 12 12 12 10 9 7 8 9 8 7 7 6 5 4 4 5 5 5 4 4 4 3 3 4 4 4 4 4 4 4 4 4 6 7 7
Wind_Direction
34 71 71 25 332 108 141 141 136 119 32 163 187 222 232 192 201 213 205 207 217 288 347 6 7 7 6 8 6 8 3 6 1 353 33 145 312 350 14 12 360 354 346 339
95 63 14 350 104 121 131 131 123 116 28 230 200 247 245 213 218 222 218 219 231 260 313 349 351 2 356 355 353 354 350 350 2 351 337 323 295 298 1 4 358 360 353 343
90 55 340 108 99 110 97 130 144 142 125 120 269 238 220 216 220 224 226 229 237 246 271 305 325 334 335 332 327 338 337 336 349 356 7 44 132 62 22 341 358 3 355 349
73 30 79 90 59 68 109 81 137 149 177 133 305 255 209 211 219 219 223 226 235 243 257 279 298 310 310 309 308 318 326 335 343 349 353 29 329 309 326 332 339 355 357 347
77 32 48 61 22 23 102 106 114 119 119 173 217 260 226 185 225 221 216 224 233 243 250 261 277 290 300 303 306 313 317 337 340 345 331 282 330 339 350 350 349 346 354 352
78 44 24 32 21 56 121 121 101 93 178 237 230 248 250 200 214 208 200 213 228 241 252 265 287 301 304 315 310 310 317 329 334 331 312 258 269 310 343 335 332 342 355 356
69 60 35 355 93 82 139 170 159 175 204 229 137 244 257 229 223 223 209 203 214 231 243 257 276 291 302 317 319 316 307 307 314 312 279 267 267 270 292 302 315 326 344 347
130 112 25 9 354 164 143 271 232 246 253 262 178 239 259 201 255 236 233 229 233 233 239 255 268 279 290 302 310 310 298 289 296 297 293 307 300 291 310 311 312 320 330 330
151 138 35 16 356 296 146 137 10 99 80 274 243 264 274 211 234 226 223 223 229 228 236 257 274 280 282 285 287 284 277 282 281 280 288 310 313 304 300 309 314 323 327 326
123 130 314 329 188 50 1 137 159 178 205 265 276 254 249 210 213 208 210 214 219 221 235 259 273 275 275 276 276 277 272 273 284 301 312 300 306 306 302 308 321 327 324 329
113 125 116 177 210 189 143 151 146 127 273 244 272 260 205 218 202 204 210 214 214 220 235 252 265 276 278 280 273 254 247 255 284 296 301 304 316 324 326 313 315 319 324 327
127 121 145 217 47 323 257 215 188 205 207 236 263 272 106 226 227 217 221 221 223 233 244 254 263 272 271 266 258 244 236 237 253 253 221 248 292 312 319 311 315 321 320 319
153 141 127 177 193 202 226 211 201 152 142 189 222 258 104 225 235 223 226 230 228 234 244 250 250 253 255 253 246 239 239 242 245 223 210 225 252 287 296 302 312 320 318 318
146 167 204 220 201 170 203 203 194 187 200 212 232 254 253 242 238 231 226 230 234 235 236 240 246 249 248 244 237 230 228 225 221 211 213 229 246 256 269 282 300 306 309 312
172 190 209 278 316 226 224 211 201 211 219 224 238 242 257 251 239 237 236 236 236 238 238 237 238 241 239 235 234 228 226 214 205 206 215 233 243 251 259 269 282 296 304 304
160 159 144 258 266 274 264 238 218 224 232 241 256 264 261 258 239 236 237 231 234 238 240 240 237 234 233 230 230 226 225 215 204 211 225 237 240 246 252 262 271 280 284 291
160 145 163 230 326 307 259 224 203 208 215 213 229 241 239 233 226 230 234 231 234 239 240 237 234 232 230 228 222 222 220 207 206 219 231 235 237 247 253 258 263 268 274 283
153 145 154 159 138 240 244 164 198 214 230 221 237 247 241 243 251 249 238 233 237 237 236 234 232 233 229 221 213 212 210 208 213 224 232 231 229 242 249 248 254 263 267 265
175 153 150 175 234 270 278 204 184 202 249 223 229 242 246 244 283 260 232 222 226 228 228 229 227 228 225 217 207 200 210 212 219 230 233 232 226 231 236 241 250 257 259 262
99 140 160 179 217 242 240 154 161 158 266 223 210 225 217 172 227 246 195 198 213 216 215 215 212 212 220 219 198 204 219 221 227 232 235 233 226 226 232 239 248 254 250 257
163 176 198 205 234 258 233 144 154 191 244 183 190 202 187 195 221 172 149 183 194 198 199 197 203 215 221 201 189 212 226 232 235 232 232 232 227 228 235 242 246 247 248 253
177 177 192 184 216 246 167 158 194 216 146 174 185 189 193 209 228 220 212 215 209 209 209 201 209 229 221 193 196 217 232 239 231 223 227 231 231 230 227 231 242 242 239 246
204 196 188 198 217 247 171 197 214 189 199 197 193 194 195 208 221 224 225 226 225 221 218 211 213 226 224 208 209 223 238 231 215 216 229 234 234 233 225 223 232 238 237 244
221 206 205 237 249 235 219 234 242 232 230 222 206 192 192 210 219 222 224 223 224 223 220 213 207 221 234 228 226 235 236 214 201 219 233 232 230 236 231 227 227 231 234 240
196 178 205 242 254 264 244 229 234 235 233 233 228 214 213 214 221 222 224 226 228 228 224 211 215 226 235 233 234 235 226 201 211 226 234 238 237 238 238 234 232 233 237 231
188 187 194 224 206 204 222 212 214 219 225 224 222 225 222 215 222 224 226 228 226 227 222 220 225 230 235 230 236 237 223 208 212 226 233 235 237 239 241 244 253 241 243 247